[[{"header":{"parameterUnit":"m.s-1","parameterCategory":2,"la1":30.2991,"la2":30.254,"lo1":-89.0895,"lo2":-89.0444,"dy":0.0017,"dx":0.0017,"nx":28,"ny":28,"refTime":"2025-04-19T03:00:00:Z","depth":"0","parameterNumber":2,"parameterNumberName":"U-component_of_CURRENTS"},"data":[0,0,0,0,0,0,0,0,0,0,0,0,0,0,0,0,0,0,0,0,0,0,0,0,0,0,0,0,0,0,0,0,0,0,0,0,0,0,0,0,0,0,0,0,0,0,0,0,0,0,0,0,0,0,0,0,0,0,0.204,0.204,0,0.2054,0.2054,0.2054,0.2022,0.2021,0.202,0.202,0.2028,0.2029,0.203,0,0,0,0,0,0,0,0,0,0,0,0,0,0.1987,0.1988,0.204,0.2041,0.2041,0.2054,0.2054,0.2054,0.2022,0.2021,0.202,0.2019,0.2028,0.2029,0.203,0,0,0,0,0,0,0,0,0,0,0,0,0,0.2003,0.1988,0.204,0.2029,0.2028,0.2054,0.2054,0.2054,0.2022,0.2021,0.202,0.2019,0.2027,0.2029,0.203,0.2061,0,0,0.2034,0.2035,0,0,0,0,0,0,0,0,0.2003,0.2005,0.203,0.203,0.2029,0.2038,0.2038,0.2057,0.2022,0.2021,0.202,0.2018,0.2033,0.2034,0.2035,0.2061,0.2062,0.2034,0.2035,0.2036,0.2036,0,0,0,0,0,0,0,0.2001,0.2004,0.2042,0.2031,0.203,0.2024,0.2024,0.2041,0.2031,0.2021,0.202,0.2026,0.2033,0.2034,0.2035,0.2062,0.2034,0.2035,0.2036,0.2037,0.2174,0.2176,0,0,0,0,0,0,0.2007,0.2003,0.2042,0.2043,0.2016,0.2026,0.2027,0.2034,0.2031,0.203,0.2027,0.2025,0.2032,0.2034,0.2035,0.2125,0.2036,0.2037,0.2038,0.2171,0.2174,0.2177,0,0,0,0,0,0,0.2006,0.2011,0.2042,0.2026,0.203,0.2028,0.2036,0.2035,0.2043,0.2036,0.2035,0.2038,0.2031,0.2033,0.2073,0.2123,0.2038,0.2039,0.2168,0.2172,0.2176,0.2271,0,0,0,0,0,0,0.2004,0.201,0.2016,0.2026,0.2031,0.2079,0.2038,0.2036,0.205,0.2047,0.2046,0.2044,0.2031,0.2071,0.2075,0.2123,0.204,0.2164,0.217,0.2175,0.2264,0.2278,0.2289,0,0,0,0,0,0.2003,0.2023,0.2016,0.2021,0.204,0.2081,0.2084,0.2075,0.2052,0.2074,0.2072,0.2045,0.2107,0.2075,0.2078,0.2128,0.2161,0.2168,0.2174,0.2258,0.2275,0.2289,0,0,0,0,0,0,0.1998,0.2022,0.2015,0.2039,0.2067,0.2077,0.2094,0.2087,0.2102,0.2093,0.2077,0.2079,0.2138,0.2123,0.2088,0.2186,0.2132,0.2139,0.2195,0.2211,0.2223,0.2207,0.2041,0,0,0,0,0,0.2003,0.2026,0.2048,0.207,0.2085,0.209,0.2103,0.2102,0.2116,0.212,0.2121,0.2131,0.2167,0.2178,0.2202,0.225,0.2248,0.2287,0.2299,0.231,0.2302,0.2355,0.2371,0.2198,0.2198,0.2198,0,0,0.2003,0.2023,0.2033,0.2071,0.2085,0.2124,0.2095,0.2126,0.2159,0.2121,0.2165,0.2179,0.2193,0.2253,0.2277,0.2243,0.2366,0.2318,0.2327,0.2313,0.2363,0.2379,0.2394,0.2202,0.2202,0.2201,0,0,0.2033,0.2041,0.2073,0.2105,0.2141,0.2152,0.2168,0.2191,0.2203,0.2253,0.2243,0.2281,0.2323,0.2343,0.2359,0.2456,0.2438,0.2474,0.2517,0.257,0.2583,0.2596,0.2641,0.2656,0.2472,0.2473,0.2473,0,0.2034,0.2074,0.2092,0.2138,0.2163,0.2171,0.2213,0.2241,0.2275,0.2296,0.2281,0.2359,0.2366,0.2441,0.2476,0.2483,0.2507,0.2456,0.2585,0.2596,0.2607,0.265,0.2666,0.2478,0.2477,0.2477,0.2476,0,0.2089,0.2123,0.2151,0.2208,0.2243,0.2283,0.2323,0.236,0.2371,0.2391,0.2466,0.2482,0.2518,0.2546,0.2539,0.263,0.2623,0.26,0.254,0.263,0.267,0.2685,0.2485,0.2484,0.2482,0.2481,0,0,0.2086,0.2169,0.2179,0.2208,0.2279,0.2309,0.2384,0.2446,0.2482,0.2527,0.2581,0.2648,0.2639,0.2656,0.2661,0.2704,0.2811,0.2686,0.2687,0.2721,0.2935,0.2864,0.2873,0.2816,0.2819,0.2821,0.2941,0,0.2121,0.2203,0.2241,0.2315,0.2357,0.2397,0.2459,0.2517,0.2561,0.262,0.2656,0.2708,0.2689,0.2707,0.2755,0.2795,0.285,0.278,0.285,0.2852,0.2769,0.2887,0.275,0.2839,0.2954,0.2957,0.2959,0,0.2159,0.2212,0.2284,0.2358,0.2378,0.2421,0.2504,0.2562,0.2653,0.2687,0.2746,0.2769,0.2847,0.281,0.2924,0.2884,0.2918,0.2944,0.2949,0.285,0.2807,0.2765,0.2861,0.2785,0.298,0.2979,0.2977,0,0.2146,0.2236,0.2286,0.2316,0.2407,0.2442,0.2486,0.2576,0.262,0.2725,0.2761,0.2853,0.2889,0.296,0.301,0.2981,0.3131,0.3091,0.3065,0.306,0.2937,0.2916,0.295,0.3179,0.3179,0.3179,0.3178,0,0.2178,0.222,0.2275,0.2312,0.2365,0.2425,0.2484,0.2554,0.2633,0.2694,0.2775,0.2838,0.2928,0.3015,0.3058,0.3113,0.3174,0.3094,0.3094,0.2969,0.2951,0.2869,0.2842,0.3183,0.3182,0.3181,0.3181,0,0.2196,0.2222,0.2284,0.2355,0.2365,0.2409,0.247,0.2517,0.2592,0.2677,0.2711,0.2843,0.2958,0.3046,0.3169,0.3155,0.3135,0.3227,0.3071,0.3049,0.2903,0.2887,0.2823,0.2741,0.3209,0.3208,0.3207,0,0.2227,0.2256,0.2306,0.2319,0.2354,0.2399,0.243,0.2498,0.2545,0.268,0.2724,0.2856,0.2938,0.3089,0.3116,0.3189,0.3121,0.3093,0.2994,0.2895,0.288,0.2778,0.2706,0.289,0.2887,0.2884,0.2882,0,0.2306,0.2303,0.235,0.2343,0.2363,0.2386,0.2428,0.2446,0.2536,0.2595,0.2689,0.2759,0.2899,0.2915,0.3005,0.3026,0.2926,0.3035,0.2983,0.2677,0.252,0.2439,0.2815,0.2858,0.286,0.2862,0.2863,0.2864,0.2363,0.2366,0.2367,0.2352,0.2365,0.2342,0.2317,0.2374,0.2401,0.2456,0.2607,0.2653,0.2757,0.2844,0.2849,0.2744,0.2751,0.2656,0.2665,0.2585,0.2433,0.2749,0.2751,0.2753,0.2754,0.2756,0.2757,0,0.2382,0.2347,0.2359,0.2302,0.2261,0.2277,0.2279,0.2231,0.2215,0.2341,0.2401,0.248,0.25,0.2549,0.2506,0.2402,0.2285,0.2341,0.2176,0.2139,0.247,0.2381,0.224,0.224,0.224,0.224,0.224,0.224,0.2388,0.2341,0.229,0.2175,0.213,0.2025,0.1988,0.1969,0.2006,0.2022,0.2047,0.2164,0.2288,0.2356,0.2249,0.2177,0.2019,0.191,0.1936,0.2182,0.2211,0.2239,0.2148,0.1961,0.1961,0.1484,0.1481,0.1478]},{"header":{"parameterUnit":"m.s-1","parameterCategory":2,"la1":30.2991,"la2":30.254,"lo1":-89.0895,"lo2":-89.0444,"dy":0.0017,"dx":0.0017,"nx":28,"ny":28,"refTime":"2025-04-19T03:00:00:Z","depth":"0","parameterNumber":3,"parameterNumberName":"V-component_of_CURRENTS"},"data":[0,0,0,0,0,0,0,0,0,0,0,0,0,0,0,0,0,0,0,0,0,0,0,0,0,0,0,0,0,0,0,0,0,0,0,0,0,0,0,0,0,0,0,0,0,0,0,0,0,0,0,0,0,0,0,0,0,0,0.0153,0.0152,0,0.0106,0.0105,0.0105,0.007,0.007,0.007,0.007,-0.0022,-0.0025,-0.0027,0,0,0,0,0,0,0,0,0,0,0,0,0,0.0166,0.0166,0.0153,0.0152,0.0152,0.0106,0.0105,0.0104,0.007,0.007,0.007,0.007,-0.0022,-0.0024,-0.0027,0,0,0,0,0,0,0,0,0,0,0,0,0,0.0143,0.0166,0.0153,0.0131,0.0128,0.0106,0.0105,0.0104,0.007,0.007,0.007,0.007,-0.0021,-0.0024,-0.0028,-0.0045,0,0,-0.0038,-0.004,0,0,0,0,0,0,0,0,0.0144,0.0142,0.0134,0.0132,0.0129,0.0095,0.0076,0.0053,0.007,0.009,0.007,0.007,0.0014,0.0008,-0.0003,-0.0049,-0.0053,-0.0039,-0.0041,-0.0042,-0.0043,0,0,0,0,0,0,0,0.0146,0.0143,0.0132,0.0134,0.0131,0.0107,0.0104,0.0072,0.0052,0.0089,0.0087,0.0084,0.0012,0.0001,-0.0005,-0.0055,-0.0038,-0.0042,-0.0044,-0.0045,-0.0148,-0.0148,0,0,0,0,0,0,0.0158,0.0145,0.0134,0.0131,0.0138,0.0108,0.0104,0.0105,0.0053,0.0046,0.0084,0.0083,0.0007,-0.0001,-0.0008,-0.0038,-0.0042,-0.0045,-0.0047,-0.0147,-0.0148,-0.0148,0,0,0,0,0,0,0.0158,0.0157,0.0136,0.0138,0.0134,0.0108,0.0109,0.0104,0.0093,0.0051,0.0042,0.0079,0.0007,-0.0004,-0.0037,-0.0042,-0.0047,-0.005,-0.0146,-0.0147,-0.0148,-0.0095,0,0,0,0,0,0,0.0159,0.0158,0.0161,0.0139,0.0135,0.0128,0.011,0.0104,0.0093,0.009,0.0043,0.0034,0.0006,-0.0031,-0.004,-0.0047,-0.0053,-0.0145,-0.0147,-0.0148,-0.0095,-0.0094,-0.0092,0,0,0,0,0,0.016,0.017,0.0161,0.016,0.014,0.0128,0.0124,0.0103,0.0093,0.0091,0.0057,0.0036,-0.0046,-0.0034,-0.0045,-0.0053,-0.0145,-0.0146,-0.0148,-0.0096,-0.0094,-0.0092,0,0,0,0,0,0,0.0177,0.0167,0.0157,0.0163,0.0148,0.0123,0.0122,0.0106,0.0078,0.0075,0.0032,0.0021,-0.0011,-0.0042,-0.0028,-0.0088,-0.0101,-0.0104,-0.0058,-0.0057,-0.0055,-0.0022,-0.0056,0,0,0,0,0,0.0183,0.0189,0.017,0.0175,0.0171,0.0145,0.0137,0.0124,0.0099,0.0087,0.0053,0.0012,-0.0026,-0.0047,-0.0083,-0.0112,-0.0107,-0.0127,-0.0125,-0.0123,-0.0106,-0.0105,-0.0101,-0.0153,-0.0153,-0.0153,0,0,0.019,0.0186,0.0189,0.0179,0.0166,0.0163,0.014,0.0135,0.0127,0.0081,0.0059,0.002,-0.0032,-0.0065,-0.0083,-0.009,-0.0105,-0.0125,-0.0123,-0.0106,-0.0106,-0.0101,-0.0096,-0.0154,-0.0154,-0.0154,0,0,0.0212,0.0206,0.0217,0.0208,0.0195,0.0179,0.018,0.0156,0.0141,0.0116,0.0077,0.0042,-0.0015,-0.005,-0.0078,-0.0088,-0.0094,-0.011,-0.0074,-0.0074,-0.0069,-0.0064,-0.0038,-0.0031,-0.011,-0.011,-0.011,0,0.022,0.0233,0.0218,0.0223,0.0222,0.019,0.0199,0.0176,0.0142,0.0138,0.0117,0.0048,-0.0006,-0.0037,-0.0051,-0.0082,-0.007,-0.0075,-0.0068,-0.0063,-0.0059,-0.0034,-0.0027,-0.0108,-0.0108,-0.0108,-0.0109,0,0.0249,0.0255,0.0262,0.0259,0.0254,0.0257,0.023,0.022,0.0198,0.0177,0.0151,0.0089,0.0054,0.0017,-0.0025,-0.0033,-0.0028,-0.006,-0.0063,-0.005,-0.0025,-0.0019,-0.0104,-0.0105,-0.0106,-0.0106,0,0,0.0274,0.0282,0.0283,0.0301,0.0276,0.0287,0.0269,0.026,0.0276,0.0224,0.0245,0.015,0.0131,0.0098,0.0044,0.0028,0.0049,-0.0003,-0.0004,0.0043,0.0079,0.0085,0.0092,0.0024,0.0025,0.0026,0.0092,0,0.03,0.0339,0.0321,0.0352,0.0375,0.0342,0.0341,0.0327,0.0308,0.0318,0.0255,0.0251,0.0156,0.0157,0.0118,0.0073,0.0066,0.0036,0.0043,0.0044,0.0063,0.0099,0.006,0.0116,0.0098,0.0099,0.01,0,0.0329,0.0359,0.0404,0.0432,0.0438,0.0451,0.0473,0.0466,0.0451,0.0441,0.0416,0.0377,0.0338,0.0268,0.0204,0.0195,0.0143,0.0105,0.0106,0.01,0.0061,0.0094,0.0128,0.0004,0.0109,0.0108,0.0108,0,0.0393,0.0413,0.0464,0.047,0.0493,0.0516,0.0524,0.0517,0.0548,0.0541,0.0585,0.0506,0.0525,0.0424,0.032,0.0272,0.028,0.0203,0.0167,0.0168,0.0131,0.0127,0.0063,0.0178,0.0178,0.0178,0.0177,0,0.0443,0.0487,0.0509,0.055,0.0632,0.0602,0.0683,0.0678,0.0699,0.0778,0.0672,0.0743,0.0569,0.0541,0.0399,0.0324,0.0342,0.0199,0.0188,0.0148,0.0145,0.0031,-0.0045,0.018,0.018,0.0179,0.0179,0,0.0545,0.0532,0.0622,0.0664,0.0678,0.0757,0.0819,0.0885,0.0871,0.0981,0.0998,0.0958,0.0917,0.0749,0.0627,0.0473,0.0293,0.0335,0.0315,0.0299,0.0112,0.004,-0.0013,-0.0082,0.0296,0.0297,0.0298,0,0.0621,0.0666,0.0752,0.0814,0.0851,0.0935,0.1004,0.0996,0.1069,0.1135,0.1218,0.1205,0.122,0.1036,0.0751,0.0528,0.0373,0.0361,0.0237,0.0124,0.0035,-0.0025,-0.0084,0.0216,0.0216,0.0216,0.0215,0,0.0798,0.0818,0.0907,0.1013,0.1102,0.1193,0.128,0.1348,0.1362,0.1436,0.1542,0.1557,0.1381,0.1131,0.0814,0.0638,0.025,0.0352,0.0227,-0.0026,-0.0089,-0.0167,0.017,0.0214,0.0214,0.0214,0.0214,0.0214,0.096,0.1046,0.1127,0.1222,0.1323,0.1416,0.1487,0.1567,0.1668,0.1753,0.1791,0.1826,0.145,0.0996,0.0756,0.0269,0.0266,0.0095,0.0026,-0.0016,-0.0115,0.0241,0.0269,0.0269,0.027,0.027,0.027,0,0.1116,0.1174,0.1307,0.1407,0.1516,0.1523,0.164,0.1688,0.1791,0.191,0.1981,0.1813,0.1383,0.0925,0.0249,-0.0036,-0.0169,-0.0175,-0.0299,-0.0341,-0.0029,-0.0069,-0.0106,-0.0106,-0.0105,-0.0105,-0.0105,-0.0105,0.1204,0.1322,0.1346,0.152,0.1592,0.1695,0.1742,0.1827,0.1897,0.1985,0.1982,0.1975,0.1575,0.0498,-0.0196,-0.0334,-0.0548,-0.0575,-0.0648,-0.0478,-0.0459,-0.0442,-0.0498,-0.0623,-0.0624,-0.0965,-0.0968,-0.0971]}],[{"header":{"parameterUnit":"m.s-1","parameterCategory":2,"la1":30.2991,"la2":30.254,"lo1":-89.0895,"lo2":-89.0444,"dy":0.0017,"dx":0.0017,"nx":28,"ny":28,"refTime":"2025-04-19T03:00:00:Z","depth":"2","parameterNumber":2,"parameterNumberName":"U-component_of_CURRENTS"},"data":[0,0,0,0,0,0,0,0,0,0,0,0,0,0,0,0,0,0,0,0,0,0,0,0,0,0,0,0,0,0,0,0,0,0,0,0,0,0,0,0,0,0,0,0,0,0,0,0,0,0,0,0,0,0,0,0,0,0,0.1926,0.1927,0,0.1956,0.1956,0.1957,0.1954,0.1954,0.1954,0.1954,0.1967,0.1967,0.1968,0,0,0,0,0,0,0,0,0,0,0,0,0,0.188,0.188,0.1926,0.1927,0.1927,0.1956,0.1957,0.1957,0.1954,0.1954,0.1954,0.1953,0.1967,0.1967,0.1968,0,0,0,0,0,0,0,0,0,0,0,0,0,0.1902,0.1881,0.1926,0.1931,0.1932,0.1956,0.1957,0.1957,0.1954,0.1954,0.1954,0.1953,0.1966,0.1967,0.1968,0.1981,0,0,0.1971,0.1971,0,0,0,0,0,0,0,0,0.19,0.1903,0.193,0.1931,0.1932,0.1953,0.1945,0.1965,0.1954,0.1943,0.1954,0.1953,0.1963,0.1964,0.1967,0.1981,0.1982,0.1971,0.1971,0.1972,0.1972,0,0,0,0,0,0,0,0.1899,0.1902,0.1936,0.1931,0.1932,0.1937,0.1939,0.1949,0.1952,0.1944,0.1945,0.1952,0.1963,0.1966,0.1967,0.1982,0.1971,0.1972,0.1972,0.1972,0.2141,0.2144,0,0,0,0,0,0,0.19,0.19,0.1935,0.1937,0.1918,0.1938,0.1941,0.1945,0.1953,0.1954,0.1952,0.1952,0.1965,0.1966,0.1968,0.2081,0.1972,0.1973,0.1973,0.2137,0.2141,0.2146,0,0,0,0,0,0,0.1899,0.1902,0.1933,0.1921,0.1926,0.194,0.1944,0.1946,0.1962,0.196,0.196,0.1969,0.1965,0.1967,0.1988,0.2077,0.1973,0.1974,0.2132,0.2138,0.2144,0.2243,0,0,0,0,0,0,0.1897,0.1902,0.1908,0.1921,0.1927,0.1972,0.1945,0.1947,0.1968,0.1968,0.1974,0.1974,0.1965,0.1987,0.1989,0.2076,0.1974,0.2127,0.2135,0.2142,0.2235,0.2252,0.2267,0,0,0,0,0,0.1895,0.191,0.1908,0.1913,0.1934,0.1974,0.1979,0.1985,0.1969,0.1994,0.1986,0.1975,0.2038,0.1989,0.1991,0.2081,0.2123,0.2133,0.2141,0.2228,0.2249,0.2266,0,0,0,0,0,0,0.189,0.1911,0.191,0.1928,0.196,0.1975,0.1997,0.1996,0.2008,0.2006,0.199,0.1991,0.2065,0.2051,0.1998,0.2158,0.2094,0.2104,0.216,0.2179,0.2195,0.2167,0.1975,0,0,0,0,0,0.1893,0.1918,0.1935,0.196,0.1971,0.1985,0.2,0.201,0.2021,0.2027,0.2029,0.2051,0.2104,0.2117,0.2153,0.2205,0.2185,0.2279,0.2295,0.2308,0.2292,0.2331,0.2347,0.2175,0.2175,0.2175,0,0,0.1898,0.1917,0.1929,0.1963,0.1981,0.2026,0.1994,0.2033,0.2083,0.2026,0.2085,0.2103,0.2132,0.2212,0.2246,0.2206,0.2355,0.2319,0.2329,0.2306,0.2342,0.2358,0.2372,0.2181,0.218,0.2179,0,0,0.1934,0.194,0.1972,0.2005,0.2046,0.2066,0.2082,0.2107,0.213,0.218,0.218,0.2222,0.2282,0.2318,0.2347,0.2465,0.2444,0.2516,0.2558,0.2598,0.2611,0.2622,0.2639,0.265,0.2513,0.2514,0.2514,0,0.194,0.1986,0.1991,0.2037,0.2074,0.2089,0.214,0.2178,0.2212,0.2232,0.2219,0.2318,0.2337,0.2436,0.2488,0.25,0.2507,0.2478,0.2614,0.2624,0.2634,0.2648,0.2659,0.252,0.2519,0.2518,0.2518,0,0.1995,0.2046,0.2074,0.2141,0.2176,0.2235,0.2277,0.232,0.2344,0.2368,0.2456,0.2471,0.2516,0.2571,0.2561,0.267,0.265,0.2633,0.2552,0.2656,0.2666,0.2676,0.2528,0.2526,0.2524,0.2523,0,0,0.1987,0.2093,0.2105,0.2148,0.224,0.2265,0.2364,0.2438,0.2481,0.2533,0.2585,0.2686,0.2662,0.2693,0.2705,0.2739,0.2825,0.2717,0.2716,0.2708,0.2906,0.2784,0.2783,0.2835,0.2837,0.2839,0.2891,0,0.204,0.214,0.2182,0.2286,0.2341,0.239,0.2466,0.2529,0.2584,0.2637,0.2676,0.2736,0.2726,0.2745,0.2786,0.2814,0.2854,0.2811,0.2826,0.2825,0.2685,0.2791,0.2585,0.2604,0.29,0.2901,0.2902,0,0.2078,0.2149,0.2248,0.2351,0.2371,0.2426,0.2521,0.2592,0.2681,0.2714,0.277,0.2793,0.2862,0.2831,0.2914,0.2889,0.2906,0.2919,0.2921,0.2767,0.2722,0.2548,0.261,0.2918,0.2917,0.2916,0.2915,0,0.2065,0.2188,0.2267,0.2308,0.2422,0.2459,0.2515,0.2606,0.2651,0.2753,0.2778,0.2864,0.2887,0.2939,0.296,0.2952,0.3028,0.3016,0.2926,0.2917,0.2718,0.2687,0.3078,0.3078,0.3078,0.3078,0.3078,0,0.212,0.2181,0.2256,0.2307,0.2376,0.2436,0.2504,0.2582,0.2654,0.2709,0.2792,0.2837,0.2916,0.2964,0.2988,0.2974,0.3053,0.2939,0.2927,0.2751,0.2724,0.2967,0.2953,0.308,0.3079,0.3079,0.3079,0,0.2125,0.2185,0.2265,0.2358,0.238,0.2419,0.2489,0.2533,0.2605,0.268,0.2711,0.282,0.2889,0.2946,0.3024,0.2982,0.3001,0.298,0.2752,0.2711,0.286,0.2851,0.289,0.2887,0.2884,0.2881,0.2879,0,0.2161,0.2196,0.2274,0.231,0.236,0.2408,0.2446,0.2513,0.2548,0.2667,0.2691,0.2787,0.2827,0.2869,0.2854,0.2862,0.2947,0.2646,0.2584,0.2858,0.2844,0.284,0.2837,0.2381,0.2375,0.237,0.2366,0,0.2233,0.2229,0.2299,0.2339,0.2377,0.2402,0.2447,0.2452,0.253,0.2571,0.2648,0.2687,0.2725,0.2623,0.2598,0.2579,0.2625,0.2541,0.291,0.2445,0.2378,0.2363,0.2377,0.2321,0.2326,0.2329,0.2332,0.2333,0.2285,0.2303,0.2351,0.238,0.2406,0.239,0.239,0.2402,0.2414,0.2398,0.2491,0.2428,0.2438,0.2277,0.2226,0.2195,0.2376,0.2268,0.2284,0.2306,0.2222,0.2151,0.2036,0.2039,0.2041,0.2043,0.2045,0,0.2336,0.2346,0.2387,0.2401,0.2391,0.2387,0.2387,0.2311,0.2276,0.222,0.219,0.1937,0.185,0.1887,0.1778,0.1767,0.1765,0.1693,0.1686,0.1732,0.1772,0.1661,0.1327,0.1325,0.1323,0.1321,0,0,0.2373,0.2398,0.2376,0.237,0.2355,0.2287,0.2258,0.2121,0.2033,0.1804,0.1688,0.1689,0.1791,0.1504,0.149,0.1397,0.1546,0.1337,0.1917,0.1953,0.199,0.2112,0.1993,0,0,0,0,0]},{"header":{"parameterUnit":"m.s-1","parameterCategory":2,"la1":30.2991,"la2":30.254,"lo1":-89.0895,"lo2":-89.0444,"dy":0.0017,"dx":0.0017,"nx":28,"ny":28,"refTime":"2025-04-19T03:00:00:Z","depth":"2","parameterNumber":3,"parameterNumberName":"V-component_of_CURRENTS"},"data":[0,0,0,0,0,0,0,0,0,0,0,0,0,0,0,0,0,0,0,0,0,0,0,0,0,0,0,0,0,0,0,0,0,0,0,0,0,0,0,0,0,0,0,0,0,0,0,0,0,0,0,0,0,0,0,0,0,0,0.0002,0.0002,0,-0.003,-0.003,-0.0031,-0.0048,-0.0048,-0.0048,-0.0048,-0.0133,-0.0135,-0.0138,0,0,0,0,0,0,0,0,0,0,0,0,0,0.0015,0.0015,0.0002,0.0002,0.0002,-0.003,-0.003,-0.0031,-0.0048,-0.0048,-0.0048,-0.0048,-0.0133,-0.0135,-0.0138,0,0,0,0,0,0,0,0,0,0,0,0,0,-0.0001,0.0015,0.0002,-0.001,-0.0012,-0.003,-0.003,-0.0031,-0.0048,-0.0048,-0.0048,-0.0048,-0.0132,-0.0135,-0.0138,-0.0159,0,0,-0.0149,-0.015,0,0,0,0,0,0,0,0,-0.0,-0.0002,-0.0008,-0.001,-0.0011,-0.0035,-0.0057,-0.0076,-0.0048,-0.0035,-0.0048,-0.0048,-0.0105,-0.0111,-0.0116,-0.0163,-0.0167,-0.0149,-0.0151,-0.0153,-0.0154,0,0,0,0,0,0,0,0.0001,-0.0001,-0.0011,-0.0009,-0.001,-0.0026,-0.0028,-0.0061,-0.0071,-0.0036,-0.0037,-0.004,-0.0106,-0.0113,-0.0119,-0.0168,-0.0149,-0.0152,-0.0154,-0.0155,-0.0256,-0.0257,0,0,0,0,0,0,0.0008,0.0001,-0.001,-0.0012,-0.0005,-0.0026,-0.0029,-0.0027,-0.0069,-0.0075,-0.004,-0.0041,-0.0107,-0.0115,-0.0122,-0.0142,-0.0153,-0.0156,-0.0158,-0.0256,-0.0257,-0.0257,0,0,0,0,0,0,0.0008,0.0007,-0.0009,-0.0006,-0.0009,-0.0026,-0.0025,-0.0028,-0.0032,-0.0072,-0.0079,-0.004,-0.0107,-0.0117,-0.0156,-0.0146,-0.0157,-0.016,-0.0255,-0.0256,-0.0257,-0.0188,0,0,0,0,0,0,0.0009,0.0008,0.0011,-0.0006,-0.0009,-0.001,-0.0025,-0.0029,-0.0034,-0.0035,-0.0075,-0.0083,-0.0108,-0.0151,-0.0159,-0.0151,-0.0163,-0.0254,-0.0255,-0.0257,-0.0189,-0.0186,-0.0184,0,0,0,0,0,0.0009,0.0018,0.0011,0.001,-0.0004,-0.001,-0.0013,-0.0026,-0.0034,-0.003,-0.0068,-0.0081,-0.0164,-0.0154,-0.0164,-0.0156,-0.0254,-0.0255,-0.0257,-0.0191,-0.0187,-0.0184,0,0,0,0,0,0,0.0024,0.0016,0.0009,0.0014,0.0006,-0.0012,-0.001,-0.0022,-0.0047,-0.005,-0.0091,-0.0102,-0.013,-0.0161,-0.0149,-0.0193,-0.0211,-0.0214,-0.0157,-0.0154,-0.0152,-0.0119,-0.0166,0,0,0,0,0,0.0029,0.0038,0.0021,0.0028,0.0024,0.0006,0.0002,-0.0005,-0.0029,-0.0039,-0.0071,-0.0111,-0.0144,-0.0163,-0.0197,-0.0223,-0.0233,-0.0227,-0.0224,-0.0221,-0.0204,-0.0211,-0.0206,-0.0262,-0.0262,-0.0262,0,0,0.0038,0.0035,0.004,0.0032,0.0025,0.0025,0.0004,0.0006,0.0005,-0.0046,-0.0063,-0.0101,-0.0151,-0.0176,-0.0191,-0.02,-0.0214,-0.0223,-0.022,-0.0204,-0.0212,-0.0206,-0.0201,-0.0263,-0.0263,-0.0263,0,0,0.0063,0.0057,0.007,0.0064,0.0058,0.0045,0.0047,0.0028,0.002,-0.0003,-0.004,-0.0072,-0.0127,-0.0154,-0.0177,-0.0184,-0.0198,-0.02,-0.0157,-0.0164,-0.0158,-0.0154,-0.0163,-0.016,-0.0199,-0.0198,-0.0198,0,0.0074,0.009,0.0073,0.0081,0.0086,0.0056,0.0072,0.0054,0.0024,0.0025,0.0,-0.0063,-0.0112,-0.0131,-0.014,-0.0173,-0.0179,-0.016,-0.0156,-0.0152,-0.0148,-0.0159,-0.0156,-0.0195,-0.0196,-0.0196,-0.0196,0,0.0105,0.0117,0.0126,0.0128,0.0126,0.0139,0.0114,0.0109,0.0091,0.0075,0.0057,-0.0006,-0.0038,-0.0066,-0.0109,-0.0109,-0.0123,-0.0147,-0.0153,-0.0137,-0.0152,-0.0149,-0.0191,-0.0192,-0.0193,-0.0194,0,0,0.0134,0.0149,0.0151,0.0176,0.0159,0.0172,0.0164,0.0165,0.0184,0.0137,0.0161,0.0081,0.0058,0.0029,-0.0023,-0.0041,-0.0039,-0.008,-0.0082,-0.0068,-0.0049,-0.0108,-0.0112,-0.0054,-0.0053,-0.0053,-0.0071,0,0.0168,0.0216,0.02,0.0244,0.0272,0.0245,0.025,0.0244,0.0228,0.0236,0.0181,0.0176,0.009,0.0089,0.0052,-0.0011,-0.003,-0.0031,-0.0085,-0.0086,-0.0123,-0.011,-0.0081,-0.0099,-0.0069,-0.0069,-0.0068,0,0.0202,0.0239,0.0295,0.0338,0.0346,0.0361,0.0392,0.0392,0.0377,0.0368,0.0345,0.0302,0.0259,0.0195,0.0104,0.011,0.0038,-0.0015,-0.0017,-0.0089,-0.0141,-0.0112,-0.0097,-0.0065,-0.0066,-0.0066,-0.0066,0,0.0265,0.0304,0.0366,0.0377,0.0407,0.0435,0.045,0.0445,0.0468,0.0466,0.0492,0.0421,0.0414,0.0312,0.0162,0.015,0.0069,0.0039,-0.0078,-0.0083,-0.0079,-0.0085,-0.0007,-0.0007,-0.0007,-0.0007,-0.0007,0,0.0318,0.0367,0.041,0.0449,0.0538,0.0519,0.0596,0.0598,0.0608,0.0653,0.0576,0.0598,0.0447,0.0366,0.0219,0.0068,0.0108,-0.006,-0.0088,-0.0059,-0.0063,-0.0052,-0.0056,-0.0008,-0.0008,-0.0007,-0.0007,0,0.0378,0.04,0.0483,0.0543,0.0576,0.0643,0.071,0.0753,0.075,0.0811,0.0821,0.0752,0.0644,0.0467,0.0307,0.0157,0.0009,-0.0056,-0.002,-0.0045,-0.0148,-0.0149,-0.0161,-0.0163,-0.0165,-0.0166,-0.0168,0,0.0414,0.0463,0.0571,0.0642,0.068,0.077,0.083,0.0839,0.0871,0.0899,0.0929,0.0863,0.077,0.05,0.0268,0.002,-0.0011,-0.0116,-0.0147,-0.0135,-0.0161,-0.016,-0.0159,-0.011,-0.0111,-0.0111,-0.0112,0,0.0483,0.0519,0.059,0.0727,0.082,0.094,0.1014,0.1043,0.1043,0.1071,0.1064,0.0997,0.0764,0.051,0.0184,0.0022,-0.008,-0.0137,-0.011,-0.0092,-0.0093,-0.0118,-0.0117,-0.0117,-0.0116,-0.0116,-0.0116,-0.0116,0.0523,0.0584,0.0663,0.0778,0.0928,0.1059,0.109,0.1147,0.1184,0.1141,0.1105,0.0981,0.0762,0.0315,0.0085,-0.0122,-0.0119,-0.0215,-0.021,-0.0205,-0.0211,-0.0218,-0.0266,-0.0266,-0.0266,-0.0267,-0.0267,0,0.047,0.0548,0.07,0.0822,0.0935,0.1062,0.1163,0.1117,0.1111,0.1151,0.1069,0.0803,0.0542,0.0318,0.0014,-0.0205,-0.0197,-0.0273,-0.0203,-0.0197,-0.0192,-0.0196,-0.0247,-0.0248,-0.0248,-0.0249,0,0,0.0441,0.0495,0.0562,0.0722,0.0872,0.1003,0.1047,0.102,0.1017,0.0983,0.095,0.0804,0.0579,0.0349,0.0093,-0.0062,-0.0088,-0.0105,-0.01,0.0019,0.0026,-0.0141,-0.0139,0,0,0,0,0]}],[{"header":{"parameterUnit":"m.s-1","parameterCategory":2,"la1":30.2991,"la2":30.254,"lo1":-89.0895,"lo2":-89.0444,"dy":0.0017,"dx":0.0017,"nx":28,"ny":28,"refTime":"2025-04-19T03:00:00:Z","depth":"4","parameterNumber":2,"parameterNumberName":"U-component_of_CURRENTS"},"data":[0,0,0,0,0,0,0,0,0,0,0,0,0,0,0,0,0,0,0,0,0,0,0,0,0,0,0,0,0,0,0,0,0,0,0,0,0,0,0,0,0,0,0,0,0,0,0,0,0,0,0,0,0,0,0,0,0,0,0.1046,0.1047,0,0.1095,0.1095,0.1096,0.1156,0.1157,0.1157,0.1158,0.1187,0.1187,0.1187,0,0,0,0,0,0,0,0,0,0,0,0,0,0.1008,0.1009,0.1046,0.1047,0.1047,0.1095,0.1095,0.1096,0.1156,0.1157,0.1158,0.1159,0.1187,0.1187,0.1187,0,0,0,0,0,0,0,0,0,0,0,0,0,0.1038,0.1009,0.1046,0.1082,0.1086,0.1094,0.1095,0.1096,0.1155,0.1157,0.1158,0.1159,0.1187,0.1187,0.1187,0.116,0,0,0.1186,0.1186,0,0,0,0,0,0,0,0,0.1037,0.104,0.1076,0.108,0.1084,0.112,0.1092,0.1116,0.1155,0.113,0.1158,0.116,0.1161,0.1163,0.1171,0.1162,0.1163,0.1186,0.1186,0.1186,0.1186,0,0,0,0,0,0,0,0.1035,0.1038,0.1066,0.1077,0.1081,0.1097,0.1102,0.1097,0.1138,0.1132,0.1136,0.114,0.1163,0.1171,0.1172,0.1163,0.1186,0.1186,0.1186,0.1186,0.1212,0.1213,0,0,0,0,0,0,0.1025,0.1036,0.1065,0.1068,0.1062,0.1096,0.1103,0.1108,0.1138,0.1144,0.1139,0.1142,0.117,0.1172,0.1173,0.1223,0.1186,0.1186,0.1186,0.1211,0.1212,0.1213,0,0,0,0,0,0,0.1024,0.1027,0.1063,0.1052,0.1058,0.1095,0.11,0.1108,0.1141,0.1143,0.115,0.1167,0.1171,0.1173,0.1188,0.1221,0.1186,0.1186,0.121,0.1212,0.1213,0.1272,0,0,0,0,0,0,0.1023,0.1027,0.104,0.1052,0.1058,0.1083,0.1099,0.1108,0.1139,0.1145,0.1169,0.1171,0.1172,0.1188,0.1188,0.1221,0.1186,0.121,0.1211,0.1212,0.1269,0.1275,0.128,0,0,0,0,0,0.1021,0.1023,0.104,0.1044,0.1071,0.1083,0.1088,0.112,0.1139,0.1154,0.1171,0.1172,0.1198,0.1188,0.1188,0.1222,0.1209,0.1211,0.1212,0.1266,0.1273,0.1279,0,0,0,0,0,0,0.1014,0.103,0.1049,0.1057,0.1079,0.1093,0.1109,0.1129,0.1155,0.1169,0.1173,0.1177,0.1201,0.1197,0.1187,0.1232,0.1206,0.1208,0.1248,0.1254,0.1259,0.1288,0.1186,0,0,0,0,0,0.1018,0.1023,0.1045,0.1053,0.1067,0.1093,0.1108,0.1131,0.1148,0.1163,0.1179,0.1194,0.1202,0.1218,0.1217,0.124,0.1256,0.1262,0.1268,0.1272,0.1295,0.136,0.1374,0.1218,0.1218,0.1218,0,0,0.1015,0.1024,0.1029,0.1052,0.1072,0.1083,0.1106,0.1134,0.1159,0.1158,0.1199,0.1206,0.1207,0.1234,0.1247,0.1243,0.1318,0.1275,0.1279,0.1299,0.1363,0.1379,0.1393,0.1219,0.1219,0.1219,0,0,0.0996,0.1025,0.1023,0.1044,0.1077,0.1091,0.1103,0.1137,0.1178,0.1204,0.1217,0.1253,0.1255,0.1284,0.1291,0.1325,0.1334,0.1321,0.1387,0.145,0.1464,0.1477,0.1489,0.1503,0.1337,0.1337,0.1337,0,0.0996,0.0992,0.1026,0.1033,0.1057,0.1094,0.1109,0.1143,0.1182,0.1227,0.1224,0.1282,0.1284,0.1341,0.1359,0.1342,0.1362,0.1363,0.1461,0.1474,0.1486,0.1495,0.1509,0.134,0.134,0.134,0.1339,0,0.098,0.0982,0.0983,0.1004,0.1043,0.1054,0.1113,0.1164,0.1209,0.1245,0.1324,0.1343,0.1392,0.1394,0.1388,0.1479,0.1457,0.1451,0.145,0.1506,0.151,0.1524,0.1345,0.1343,0.1343,0.1342,0,0,0.095,0.0965,0.0966,0.0992,0.1033,0.1073,0.1127,0.1197,0.1261,0.1314,0.1402,0.1437,0.1481,0.1494,0.151,0.157,0.1659,0.156,0.1561,0.1581,0.1774,0.1623,0.1623,0.168,0.1684,0.1686,0.1733,0,0.0921,0.0928,0.0948,0.0979,0.1,0.1074,0.1131,0.122,0.1284,0.1375,0.145,0.1518,0.151,0.1558,0.1619,0.1647,0.1703,0.1645,0.1709,0.171,0.1579,0.1638,0.1697,0.1743,0.1746,0.1748,0.175,0,0.0893,0.0909,0.093,0.1006,0.103,0.1069,0.1213,0.127,0.1396,0.146,0.1555,0.1599,0.1705,0.169,0.1796,0.1763,0.1786,0.18,0.1802,0.1658,0.1586,0.1681,0.1775,0.1773,0.1771,0.1769,0.1768,0,0.0877,0.0902,0.0929,0.095,0.1035,0.1107,0.118,0.1309,0.1382,0.1535,0.1594,0.1709,0.1786,0.1846,0.1866,0.1856,0.1958,0.1941,0.1823,0.1811,0.1907,0.1893,0.2034,0.2034,0.2034,0.2034,0.2034,0,0.083,0.0853,0.0936,0.0953,0.1047,0.1136,0.1246,0.134,0.1464,0.1543,0.1654,0.1721,0.1838,0.1891,0.1905,0.189,0.1993,0.1849,0.1829,0.1923,0.1911,0.1915,0.19,0.2036,0.2035,0.2035,0.2035,0,0.0797,0.0816,0.0872,0.0985,0.103,0.1127,0.127,0.1336,0.147,0.1578,0.1634,0.1763,0.1834,0.1888,0.1976,0.1922,0.1929,0.1899,0.1972,0.1952,0.173,0.1718,0.1786,0.1782,0.1778,0.1775,0.1772,0,0.0779,0.0794,0.0912,0.0948,0.0996,0.1128,0.1196,0.1339,0.1401,0.1575,0.1613,0.1732,0.1799,0.1786,0.1861,0.1869,0.1851,0.1837,0.1813,0.1739,0.1713,0.1707,0.1701,0.1766,0.1765,0.1764,0.1763,0,0.0754,0.0797,0.0839,0.0902,0.0974,0.1068,0.1181,0.1216,0.1373,0.1497,0.1557,0.1596,0.1665,0.1708,0.172,0.1725,0.1837,0.1796,0.1805,0.1783,0.1715,0.1692,0.169,0.1749,0.1751,0.1752,0.1753,0,0.0736,0.076,0.0783,0.0843,0.0921,0.0973,0.1058,0.1128,0.1206,0.1395,0.1409,0.1527,0.1646,0.1633,0.1643,0.1633,0.162,0.1572,0.1592,0.1608,0.1527,0.1413,0.1354,0,0,0,0,0,0.0697,0.0671,0.0714,0.0749,0.0827,0.0873,0.1012,0.1092,0.1245,0.1246,0.1324,0.1377,0.1414,0.1475,0.143,0.1564,0.1619,0.1504,0.1571,0.1675,0.169,0.1611,0,0,0,0,0,0,0.0639,0.0646,0.0661,0.065,0.0669,0.0738,0.083,0.0941,0.0961,0.1123,0.1151,0.1273,0.1328,0.1407,0.1392,0.141,0.1421,0.1581,0.1578,0.1666,0.168,0.1692,0.1616,0,0,0,0,0]},{"header":{"parameterUnit":"m.s-1","parameterCategory":2,"la1":30.2991,"la2":30.254,"lo1":-89.0895,"lo2":-89.0444,"dy":0.0017,"dx":0.0017,"nx":28,"ny":28,"refTime":"2025-04-19T03:00:00:Z","depth":"4","parameterNumber":3,"parameterNumberName":"V-component_of_CURRENTS"},"data":[0,0,0,0,0,0,0,0,0,0,0,0,0,0,0,0,0,0,0,0,0,0,0,0,0,0,0,0,0,0,0,0,0,0,0,0,0,0,0,0,0,0,0,0,0,0,0,0,0,0,0,0,0,0,0,0,0,0,-0.0014,-0.0014,0,-0.0025,-0.0025,-0.0025,-0.0053,-0.0054,-0.0054,-0.0055,-0.0097,-0.0098,-0.0098,0,0,0,0,0,0,0,0,0,0,0,0,0,-0.0029,-0.0028,-0.0014,-0.0014,-0.0015,-0.0024,-0.0025,-0.0025,-0.0053,-0.0054,-0.0054,-0.0055,-0.0097,-0.0098,-0.0098,0,0,0,0,0,0,0,0,0,0,0,0,0,-0.0029,-0.0028,-0.0014,-0.003,-0.0031,-0.0024,-0.0025,-0.0025,-0.0053,-0.0054,-0.0055,-0.0055,-0.0097,-0.0098,-0.0098,-0.0086,0,0,-0.0101,-0.0101,0,0,0,0,0,0,0,0,-0.0029,-0.0029,-0.0027,-0.0029,-0.003,-0.0038,-0.0045,-0.0047,-0.0053,-0.0045,-0.0055,-0.0056,-0.008,-0.0082,-0.0082,-0.0088,-0.009,-0.0101,-0.0102,-0.0102,-0.0102,0,0,0,0,0,0,0,-0.0029,-0.0028,-0.0019,-0.0027,-0.0029,-0.0039,-0.004,-0.0046,-0.0058,-0.0046,-0.0048,-0.0048,-0.0081,-0.0081,-0.0083,-0.0091,-0.0101,-0.0102,-0.0102,-0.0103,-0.008,-0.0079,0,0,0,0,0,0,-0.0026,-0.0028,-0.0018,-0.0019,-0.0031,-0.0038,-0.0039,-0.0035,-0.0057,-0.0061,-0.0047,-0.0049,-0.0079,-0.0082,-0.0085,-0.0059,-0.0102,-0.0103,-0.0103,-0.0081,-0.0079,-0.0078,0,0,0,0,0,0,-0.0026,-0.0024,-0.0018,-0.0024,-0.0024,-0.0037,-0.0032,-0.0035,-0.004,-0.0058,-0.0063,-0.005,-0.008,-0.0084,-0.0083,-0.0062,-0.0103,-0.0104,-0.0082,-0.008,-0.0079,-0.0017,0,0,0,0,0,0,-0.0026,-0.0024,-0.0021,-0.0023,-0.0023,-0.0009,-0.0031,-0.0034,-0.0038,-0.0041,-0.0062,-0.0067,-0.0081,-0.0082,-0.0084,-0.0064,-0.0105,-0.0084,-0.0081,-0.0079,-0.002,-0.0013,-0.0007,0,0,0,0,0,-0.0026,-0.0011,-0.0021,-0.002,-0.0018,-0.0008,-0.0009,-0.0022,-0.0037,-0.0031,-0.0044,-0.0066,-0.007,-0.0081,-0.0085,-0.0064,-0.0085,-0.0082,-0.0079,-0.0023,-0.0014,-0.0007,0,0,0,0,0,0,-0.0014,-0.0012,-0.0023,-0.0009,-0.0009,-0.0013,-0.0007,-0.0019,-0.0025,-0.003,-0.0053,-0.0058,-0.0049,-0.0064,-0.0076,-0.005,-0.008,-0.0078,-0.0036,-0.0028,-0.0022,-0.0022,-0.0106,0,0,0,0,0,-0.001,0.0001,-0.0002,0.0009,0.001,-0.0001,-0.0,-0.0008,-0.0012,-0.0016,-0.0031,-0.0041,-0.0038,-0.004,-0.0044,-0.0031,-0.0074,-0.0019,-0.0013,-0.0007,-0.0009,-0.0056,-0.0055,-0.007,-0.007,-0.007,0,0,-0.0003,0.0,0.0005,0.0012,0.001,0.0029,-0.0002,0.0005,0.0023,-0.0019,-0.0004,-0.0021,-0.003,-0.0013,-0.001,-0.0025,-0.0024,-0.0004,0.0001,-0.0004,-0.0054,-0.0053,-0.0052,-0.0068,-0.0068,-0.0069,0,0,0.0031,0.0021,0.0046,0.0049,0.0052,0.0049,0.0052,0.0047,0.0044,0.0056,0.0035,0.003,0.0029,0.0029,0.0029,0.007,0.0012,0.007,0.0103,0.0058,0.0058,0.0057,0.0006,0.0,0.0074,0.0074,0.0074,0,0.0039,0.0071,0.0054,0.0081,0.0091,0.0062,0.0093,0.0093,0.0089,0.0087,0.0068,0.0061,0.0052,0.0073,0.009,0.0085,0.004,0.0074,0.0064,0.0063,0.0062,0.0009,0.0002,0.0078,0.0077,0.0077,0.0077,0,0.0093,0.0118,0.0133,0.0158,0.0165,0.0187,0.0182,0.0186,0.0171,0.0159,0.016,0.0141,0.0131,0.0136,0.0128,0.0126,0.0092,0.0076,0.0041,0.0067,0.001,0.0001,0.0082,0.0081,0.008,0.0079,0,0,0.0116,0.0164,0.0169,0.0191,0.0208,0.0217,0.0248,0.026,0.0261,0.0247,0.0245,0.0253,0.0212,0.021,0.0191,0.0159,0.0118,0.0117,0.0113,0.0059,0.0003,0.0011,0.0002,0.0091,0.009,0.0089,-0.0033,0,0.0165,0.0229,0.0243,0.0299,0.0327,0.0318,0.0343,0.0342,0.0324,0.031,0.0281,0.0269,0.0251,0.0237,0.0206,0.0137,0.0099,0.0152,-0.0009,-0.0014,-0.0015,-0.0006,0.0086,-0.004,-0.0042,-0.0043,-0.0045,0,0.0213,0.0251,0.0314,0.036,0.037,0.0398,0.0408,0.0427,0.0402,0.0383,0.0356,0.0313,0.0282,0.025,0.0143,0.0172,0.0095,0.0036,0.003,0.0008,-0.0021,-0.0071,-0.006,-0.0059,-0.0058,-0.0057,-0.0056,0,0.0221,0.0298,0.0347,0.0363,0.0408,0.0433,0.0454,0.0444,0.0443,0.0417,0.0391,0.0343,0.0302,0.0212,0.0101,0.0111,-0.0043,-0.0046,-0.0113,-0.0114,-0.0115,-0.0113,-0.0134,-0.0134,-0.0133,-0.0133,-0.0133,0,0.0255,0.0289,0.0356,0.0376,0.0414,0.045,0.0472,0.0474,0.0471,0.0452,0.042,0.0381,0.0285,0.0187,0.0093,-0.0037,-0.0054,-0.0111,-0.0143,-0.0084,-0.0078,-0.0121,-0.0118,-0.0138,-0.0136,-0.0136,-0.0135,0,0.0221,0.028,0.0322,0.039,0.0413,0.0425,0.0475,0.0475,0.0489,0.046,0.0451,0.039,0.0277,0.0167,0.0009,-0.005,-0.0172,-0.0217,-0.0156,-0.0182,-0.0212,-0.0204,-0.0297,-0.0298,-0.0298,-0.0299,-0.0299,0,0.0196,0.0225,0.0296,0.0308,0.0335,0.038,0.0397,0.0456,0.046,0.0455,0.0428,0.0343,0.0284,0.0075,-0.0031,-0.0204,-0.0221,-0.0283,-0.0228,-0.0206,-0.0228,-0.0219,-0.0211,-0.03,-0.03,-0.03,-0.03,0,0.0133,0.0161,0.0189,0.0235,0.0267,0.0296,0.0347,0.0366,0.0422,0.0433,0.04,0.0322,0.0196,0.0069,-0.0064,-0.0187,-0.0234,-0.0289,-0.0288,-0.0237,-0.0211,-0.023,-0.0221,-0.0302,-0.0302,-0.0302,-0.0302,0,0.0066,0.0065,0.0127,0.0172,0.0192,0.0226,0.026,0.0305,0.0342,0.0381,0.0359,0.0267,0.0226,0.0073,-0.0057,-0.0163,-0.0179,-0.02,-0.0203,-0.0203,-0.0123,-0.0072,-0.0153,0,0,0,0,0,0.0035,0.0071,0.007,0.0144,0.0151,0.0197,0.0232,0.0274,0.0356,0.0329,0.0365,0.026,0.0118,0.0057,-0.005,-0.0086,-0.0218,-0.0215,-0.025,-0.0313,-0.0311,-0.023,0,0,0,0,0,0,0.0022,0.0039,0.0073,0.0122,0.0164,0.0198,0.0227,0.0264,0.0277,0.0328,0.0249,0.0256,0.0103,0.0189,-0.0039,-0.007,-0.0104,-0.027,-0.0272,-0.0315,-0.0313,-0.0311,-0.0227,0,0,0,0,0]}]]